Regional Weather Roundup
Issued by NWS

Home | Current Version | Previous Version | Text Only | Print | Product List | Glossary On
Versions: 1 2 3 4 5 6 7 8 9 10 11 12 13 14 15 16 17 18 19 20 21 22 23 24 25 26 27 28 29 30 31 32 33 34 35 36 37 38 39 40 41 42 43 44 45 46 47 48 49 50
000
ASUS45 KBOU 241907
RWRCO

WEATHER ROUNDUP FOR COLORADO
NATIONAL WEATHER SERVICE DENVER/BOULDER CO
1200 PM MST WED DEC 24 2014

NOTE: "FAIR" INDICATES FEW OR NO CLOUDS BELOW 12000 FEET WITH NO
SIGNIFICANT WEATHER AND/OR OBSTRUCTIONS TO VISIBILITY.

COZ001>005-013-030-031-242000-
...NORTHWEST COLORADO...

CITY           SKY/WX    TMP DP  RH WIND       PRES   REMARKS
CRAIG          PTSUNNY   20  11  68 S5        30.04F WCI  13
HAYDEN         PTSUNNY   18   7  62 S7        30.03S WCI   8
MEEKER         SUNNY     20   9  62 CALM      30.05F
MOUNT WERNER   NOT AVBL
STEAMBOAT SPGS PTSUNNY   18   7  61 CALM      30.03S
WALDEN         MOSUNNY   19   9  63 S12       29.93F WCI   7
$$

COZ006>008-011-242000-
...WEST CENTRAL VALLEYS...

CITY           SKY/WX    TMP DP  RH WIND       PRES   REMARKS
GRAND JUNCTION SUNNY     30  11  45 SE6       30.13F WCI  24
MONTROSE       SUNNY     30   8  39 NW5       30.12F WCI  25
EAGLE          MOSUNNY   28  19  69 CALM      30.13F
RIFLE          SUNNY     23   9  55 W5        30.13F WCI  17
DELTA          SUNNY     31   9  39 E3        30.13F
NUCLA          SUNNY     32   9  37 N3        30.14F
$$

COZ017>023-064>068-242000-
...SOUTHWEST COLORADO...

CITY           SKY/WX    TMP DP  RH WIND       PRES   REMARKS
DURANGO        SUNNY     29   6  38 VRB3      30.09F
CORTEZ         SUNNY     34  11  38 W8        30.12F WCI  27
PAGOSA SPRINGS SUNNY     27   0  30 SW3       30.05F
TELLURIDE      SUNNY     32  14  47 CALM      30.05S
WOLF CREEK PAS SUNNY     27   9  46 MISG      30.02F
$$

COZ009-010-012-014-032>034-037-058>063-242000-
...CENTRAL COLORADO...

CITY           SKY/WX    TMP DP  RH WIND       PRES   REMARKS
ASPEN          MOSUNNY   20   6  55 N6        29.99F WCI  12
BUENA VISTA    SUNNY     31   7  36 E5        29.89F WCI  26
COPPER MTN     MOSUNNY   25  18  74 W8        29.95F WCI  16
BERTHOUD PASS    N/A     14   9  79 MISG      29.85
COTTONWOOD PAS SUNNY     36  14  41 CALM      29.89F
GUNNISON       SUNNY      0 -11  60 CALM      30.13F
KREMMLING      SUNNY     10   1  67 CALM      30.06F
LEADVILLE      MOSUNNY   30  15  53 NW10      29.91F WCI  21
MONARCH PASS     N/A     14  10  85 W33G39    30.03F WCI  -8
SALIDA         SUNNY     38   7  27 SW14G21   29.96F
SUNLIGHT       SUNNY    N/A N/A N/A MISG      30.02S
WILKERSON PASS MOSUNNY   28  14  54 NW13G36   29.90F WCI  18
$$

COZ069>075-242000-
...SAN LUIS VALLEY/SANGRE DE CRISTO MOUNTAINS...

CITY           SKY/WX    TMP DP  RH WIND       PRES   REMARKS
ALAMOSA        SUNNY     26   3  37 NE3       30.01F
LA VETA PASS   SUNNY     19   3  49 SW8G20    29.92F WCI   9
SAGUACHE       SUNNY     18   3  53 CALM      30.03F
$$

COZ035-036-038>040-242000-
...NORTHERN COLORADO FRONT RANGE...

CITY           SKY/WX    TMP DP  RH WIND       PRES   REMARKS
DENVER INTL AP MOSUNNY   49  14  24 SW10      29.72F
DMNS CITY PARK   N/A     49  12  22 S2G8      29.71F
AURORA         MOSUNNY   49  14  25 SW9       29.73F
FRONT RANGE AP MOSUNNY   50  18  27 SW6       29.73
ERIE MUNI ARPT   N/A     40  14  34 MISG      29.71F
BOULDER MUN AP MOSUNNY   54  18  24 W18G25    29.70F
CENTENNIAL     MOSUNNY   46  19  34 SW5       29.74F
BROOMFIELD     PTSUNNY   50  19  29 W15       29.73F
FORT COLLINS   SUNNY     37  12  35 S6        29.73F
LONGMONT       SUNNY     38   9  30 CALM      29.73F
$$

COZ041-046-047-076>085-087-088-242000-
...PIKES PEAK/PALMER DIVIDE AND SOUTHERN FOOTHILLS...

CITY           SKY/WX    TMP DP  RH WIND       PRES   REMARKS
COLO. SPRINGS  MOSUNNY   39   3  22 VRB5      29.80F
A. F. ACADEMY  MOSUNNY   37   4  25 CALM      29.78F
ELLICOTT       NOT AVBL
FALCON         SUNNY     41   9  27 SW6       29.80F
FORT CARSON    SUNNY     36  10  34 SE6       29.79F
LIMON          SUNNY     40  12  32 S12       29.77F
MONUMENT HILL  SUNNY     39  21  48 S5        29.75F
TRINIDAD       SUNNY     30  17  58 SW6       29.85F WCI  24
$$

COZ042>045-048>051-090-091-242000-
...NORTHEAST COLORADO...

CITY           SKY/WX    TMP DP  RH WIND       PRES   REMARKS
GREELEY ARPT   SUNNY     37  12  35 S7        29.72F
AKRON          SUNNY     38  17  42 SW12      29.74F
BURLINGTON     SUNNY     35  17  47 SW15G24   29.81F WCI  25
WRAY           SUNNY     41  20  43 MISG      29.77F
STERLING       SUNNY     30  21  69 S9        29.75F WCI  22
HOLYOKE        SUNNY     41  21  45 W15       29.75F
FORT MORGAN    SUNNY     29  16  57 W3        29.76F
$$

COZ086-089-092>099-242000-
...SOUTHEAST COLORADO...

CITY           SKY/WX    TMP DP  RH WIND       PRES   REMARKS
PUEBLO         SUNNY     35  10  35 E5        29.82F WCI  31
LA JUNTA       SUNNY     41  12  30 SW14      29.84F
LAMAR          SUNNY     43   6  21 SW13      29.85F
SPRINGFIELD      N/A     38  15  39 SW13      29.88F
$$



USA.gov is the U.S. government's official web portal to all federal, state and local government web resources and services.